Hourly Weather Toronto

Today, 10 July, Friday

Time Temperature Precipitation Wind Pressure Humidity
00:00 +28°C° 0 mm 2 mps 747 mmHg 74%
01:00 +28°C° 0 mm 1 mps 747 mmHg 74%
02:00 +27°C° 0 mm 1 mps 747 mmHg 75%
03:00 +27°C° 0 mm 1 mps 747 mmHg 76%
04:00 +27°C° 0 mm 2 mps 746 mmHg 77%
05:00 +27°C° 0 mm 2 mps 746 mmHg 75%
06:00 +28°C° 0 mm 2 mps 746 mmHg 74%
07:00 +28°C° 0 mm 2 mps 746 mmHg 73%
08:00 +30°C° 0 mm 3 mps 746 mmHg 67%
09:00 +31°C° 0 mm 3 mps 746 mmHg 62%
10:00 +33°C° 0 mm 3 mps 746 mmHg 57%
11:00 +33°C° 0.3 mm 4 mps 746 mmHg 55%
12:00 +34°C° 0.3 mm 4 mps 745 mmHg 53%
13:00 +34°C° 0.3 mm 5 mps 745 mmHg 51%
14:00 +34°C° 0.3 mm 5 mps 745 mmHg 52%
15:00 +34°C° 0.3 mm 4 mps 744 mmHg 52%
16:00 +34°C° 0.3 mm 4 mps 744 mmHg 53%
17:00 +34°C° 0.2 mm 4 mps 744 mmHg 56%
18:00 +33°C° 0.2 mm 3 mps 743 mmHg 59%
19:00 +31°C° 0.2 mm 3 mps 743 mmHg 62%
20:00 +30°C° 0 mm 3 mps 742 mmHg 65%
21:00 +29°C° 0 mm 2 mps 742 mmHg 68%
22:00 +29°C° 0 mm 2 mps 742 mmHg 71%
23:00 +28°C° 0.2 mm 2 mps 741 mmHg 73%

Tomorrow, 11 July, Saturday

Time Temperature Precipitation Wind Pressure Humidity
00:00 +28°C° 0.2 mm 3 mps 741 mmHg 75%
01:00 +27°C° 0.2 mm 3 mps 741 mmHg 77%
02:00 +27°C° 1.1 mm 3 mps 740 mmHg 79%
03:00 +27°C° 1.1 mm 3 mps 740 mmHg 81%
04:00 +26°C° 1.1 mm 3 mps 739 mmHg 82%
05:00 +26°C° 1.2 mm 3 mps 740 mmHg 81%
06:00 +26°C° 1.2 mm 3 mps 740 mmHg 80%
07:00 +26°C° 1.2 mm 3 mps 740 mmHg 79%
08:00 +27°C° 0.6 mm 3 mps 740 mmHg 75%
09:00 +28°C° 0.6 mm 3 mps 740 mmHg 71%
10:00 +29°C° 0.6 mm 3 mps 740 mmHg 67%
11:00 +29°C° 1 mm 3 mps 740 mmHg 67%
12:00 +29°C° 1 mm 3 mps 740 mmHg 67%
13:00 +29°C° 1 mm 3 mps 740 mmHg 67%
14:00 +29°C° 1.7 mm 3 mps 739 mmHg 67%
15:00 +29°C° 1.7 mm 3 mps 739 mmHg 67%
16:00 +29°C° 1.7 mm 3 mps 739 mmHg 67%
17:00 +28°C° 2 mm 4 mps 739 mmHg 70%
18:00 +27°C° 2 mm 5 mps 739 mmHg 74%
19:00 +24°C° 2 mm 6 mps 740 mmHg 77%
20:00 +24°C° 0.1 mm 6 mps 740 mmHg 77%
21:00 +24°C° 0.1 mm 6 mps 740 mmHg 77%
22:00 +23°C° 0.1 mm 5 mps 740 mmHg 77%
23:00 +23°C° 0 mm 5 mps 740 mmHg 78%

Day after tomorrow, 12 July, Sunday

Time Temperature Precipitation Wind Pressure Humidity
00:00 +22°C° 0 mm 4 mps 740 mmHg 79%
01:00 +22°C° 0 mm 4 mps 740 mmHg 80%
02:00 +22°C° 0 mm 4 mps 740 mmHg 80%
03:00 +22°C° 0 mm 4 mps 741 mmHg 80%
04:00 +21°C° 0 mm 4 mps 741 mmHg 81%
05:00 +22°C° 0 mm 4 mps 741 mmHg 79%
06:00 +22°C° 0 mm 4 mps 742 mmHg 77%
07:00 +23°C° 0 mm 4 mps 742 mmHg 74%
08:00 +25°C° 0 mm 4 mps 742 mmHg 69%
09:00 +27°C° 0 mm 3 mps 742 mmHg 64%
10:00 +28°C° 0 mm 3 mps 742 mmHg 59%
11:00 +29°C° 0.2 mm 3 mps 742 mmHg 57%
12:00 +29°C° 0.2 mm 3 mps 743 mmHg 55%
13:00 +30°C° 0.2 mm 4 mps 743 mmHg 53%
14:00 +30°C° 0.3 mm 3 mps 743 mmHg 55%
15:00 +29°C° 0.3 mm 3 mps 742 mmHg 57%
16:00 +29°C° 0.3 mm 3 mps 742 mmHg 59%
17:00 +28°C° 0 mm 3 mps 742 mmHg 60%
18:00 +28°C° 0 mm 2 mps 742 mmHg 62%
19:00 +28°C° 0 mm 2 mps 743 mmHg 63%
20:00 +26°C° 0.7 mm 2 mps 742 mmHg 68%
21:00 +25°C° 0.7 mm 2 mps 742 mmHg 72%
22:00 +24°C° 0.7 mm 2 mps 742 mmHg 76%
23:00 +24°C° 1.5 mm 2 mps 742 mmHg 78%

13 July, Monday

Time Temperature Precipitation Wind Pressure Humidity
00:00 +23°C° 1.5 mm 2 mps 742 mmHg 80%
01:00 +23°C° 1.5 mm 2 mps 742 mmHg 81%
02:00 +21°C° 2.2 mm 2 mps 742 mmHg 83%
03:00 +21°C° 2.2 mm 2 mps 742 mmHg 85%
04:00 +21°C° 2.2 mm 2 mps 741 mmHg 87%
05:00 +21°C° 2.7 mm 2 mps 742 mmHg 88%
06:00 +21°C° 2.7 mm 3 mps 742 mmHg 89%
07:00 +20°C° 2.7 mm 3 mps 742 mmHg 89%
08:00 +21°C° 2.1 mm 3 mps 742 mmHg 87%
09:00 +21°C° 2.1 mm 3 mps 742 mmHg 86%
10:00 +21°C° 2.1 mm 3 mps 743 mmHg 84%
11:00 +21°C° 0.4 mm 3 mps 743 mmHg 83%
12:00 +21°C° 0.4 mm 2 mps 743 mmHg 81%
13:00 +21°C° 0.4 mm 2 mps 743 mmHg 80%
14:00 +23°C° 0.5 mm 2 mps 743 mmHg 75%
15:00 +24°C° 0.5 mm 2 mps 743 mmHg 71%
16:00 +25°C° 0.5 mm 2 mps 743 mmHg 67%
17:00 +25°C° 1.2 mm 2 mps 744 mmHg 70%
18:00 +24°C° 1.2 mm 3 mps 744 mmHg 72%
19:00 +22°C° 1.2 mm 4 mps 744 mmHg 75%
20:00 +22°C° 0.5 mm 3 mps 744 mmHg 77%
21:00 +21°C° 0.5 mm 3 mps 745 mmHg 79%
22:00 +20°C° 0.5 mm 3 mps 745 mmHg 81%
23:00 +20°C° 0.1 mm 3 mps 745 mmHg 80%

14 July, Tuesday

Time Temperature Precipitation Wind Pressure Humidity
00:00 +20°C° 0.1 mm 3 mps 745 mmHg 79%
01:00 +20°C° 0.1 mm 3 mps 745 mmHg 78%
02:00 +20°C° 0.1 mm 3 mps 745 mmHg 79%
03:00 +20°C° 0.1 mm 3 mps 744 mmHg 79%
04:00 +20°C° 0.1 mm 3 mps 744 mmHg 80%
05:00 +20°C° 0.2 mm 3 mps 745 mmHg 78%
06:00 +20°C° 0.2 mm 4 mps 745 mmHg 77%
07:00 +21°C° 0.2 mm 4 mps 746 mmHg 75%
08:00 +22°C° 0 mm 4 mps 746 mmHg 69%
09:00 +25°C° 0 mm 4 mps 746 mmHg 62%
10:00 +27°C° 0 mm 4 mps 746 mmHg 56%
11:00 +27°C° 0.1 mm 4 mps 746 mmHg 55%
12:00 +28°C° 0.1 mm 4 mps 746 mmHg 54%
13:00 +29°C° 0.1 mm 5 mps 747 mmHg 53%
14:00 +28°C° 0.3 mm 5 mps 747 mmHg 55%
15:00 +28°C° 0.3 mm 5 mps 747 mmHg 57%
16:00 +28°C° 0.3 mm 5 mps 747 mmHg 59%
17:00 +27°C° 0 mm 4 mps 747 mmHg 61%
18:00 +26°C° 0 mm 4 mps 747 mmHg 63%
19:00 +26°C° 0 mm 4 mps 747 mmHg 65%
20:00 +25°C° 0 mm 4 mps 747 mmHg 68%
21:00 +24°C° 0 mm 3 mps 748 mmHg 71%
22:00 +22°C° 0 mm 3 mps 748 mmHg 74%
23:00 +22°C° 0 mm 3 mps 748 mmHg 75%

15 July, Wednesday

Time Temperature Precipitation Wind Pressure Humidity
00:00 +21°C° 0 mm 3 mps 748 mmHg 76%
01:00 +21°C° 0 mm 3 mps 748 mmHg 78%
02:00 +21°C° 0 mm 3 mps 748 mmHg 78%
03:00 +20°C° 0 mm 3 mps 748 mmHg 79%
04:00 +20°C° 0 mm 3 mps 748 mmHg 80%
05:00 +21°C° 0 mm 2 mps 748 mmHg 78%
06:00 +21°C° 0 mm 2 mps 749 mmHg 76%
07:00 +23°C° 0 mm 2 mps 749 mmHg 74%
08:00 +25°C° 0 mm 3 mps 749 mmHg 70%
09:00 +26°C° 0 mm 4 mps 749 mmHg 65%
10:00 +28°C° 0 mm 4 mps 749 mmHg 61%
11:00 +29°C° 0 mm 5 mps 749 mmHg 61%
12:00 +29°C° 0 mm 5 mps 749 mmHg 61%
13:00 +30°C° 0 mm 6 mps 749 mmHg 60%
14:00 +30°C° 0.1 mm 6 mps 749 mmHg 62%
15:00 +30°C° 0.1 mm 6 mps 749 mmHg 63%
16:00 +30°C° 0.1 mm 5 mps 748 mmHg 65%
17:00 +30°C° 0.3 mm 5 mps 749 mmHg 67%
18:00 +29°C° 0.3 mm 5 mps 749 mmHg 70%
19:00 +29°C° 0.3 mm 4 mps 749 mmHg 72%
20:00 +28°C° 0.9 mm 3 mps 749 mmHg 74%
21:00 +27°C° 0.9 mm 3 mps 749 mmHg 77%
22:00 +26°C° 0.9 mm 2 mps 749 mmHg 79%
23:00 +26°C° 0.3 mm 2 mps 749 mmHg 81%
Show more